NOAA 16 DEB, 41705

Orbit data source: Space-Track

NOAA 16 DEB, 41705 is space debris in SSO originally from a launch on Thu, 21 Sep 2000 UTC launched from the Air Force Western Test Range (AFWTR). Debris objects in space refer to the collection of defunct objects orbiting the Earth. Examples of debris include non-operational satellites, rocket bodies, and fragments generated from explosions, collisions, or faulty payload assembly.

Loading next visibility...
Identifier
41705, 2000-055PK
Orbit
SSO
Country
Flag of USUS
Related business
Manufacturer
Unknown
Mission
Spacecraft
Bus & Motor
Unknown
Mass
Unknown
Launch date (UTC)
2000-09-21 (25 years ago)
Launch vehicle
Unknown
Launch site
Air Force Western Test Range (AFWTR)
Object type
Payload
Rocket body
Debris
Shape & HBR
Unknown shape, 0.1 m
Radar Cross Section
Small (<0.1 m²)

Expand to show TLE details & history
Last TLE update: 19 hours ago

TLE from 19 hours ago
0 NOAA 16 DEB
1 41705U 00055PK  25299.95834388  .00001749  00000-0  82196-3 0  9992
2 41705  98.6468  11.1035 0014853 211.0968 148.9332 14.21241649492491
Epoch: 2025-10-26T23:00Z
TLE epoch observation values (Epoch: 2025-10-26T23:00:00.911Z)
Latitude
0.00004°
Longitude
-9.46738°
Altitude
833.24 km
Speed
7.432 km/s
True Right ascension
00h 44m 24s
True Declination
0° 00' 00"
Sunlit
Object was in full shadow at epoch
Visualization orbit readout
Latitude
Unknown
Longitude
Unknown
Altitude
Unknown
Speed
Unknown
Apparent Right ascension
Unknown
Apparent Declination
Unknown
Sunlit
N/A
Visualization observer readout
Local Sidereal Time
13:26:23
Azimuth
Unknown
Elevation
Unknown
Doppler factor
Unknown
Orbital elements
Apogee altitude
828.999 km
Perigee altitude
807.622 km
Semi-major axis
7,196.448 km
Eccentricity
0.00149
Inclination
98.6468°
RAAN
11.1035°
Arg. of periapsis
211.0968°
True anomaly
149.02089°
Mean anomaly
148.9332°
Eccentric anomaly
148.97706°
Mean motion
3.55522 °/min
Orbital period
101.26 mins
BSTAR
0.00082196
Loading maneuver chart data...
Computing Atmospheric mass density...
Loading historical data...
Loading historical data...
Loading historical data...
Loading historical data...
Loading historical data...
Loading historical data...
Loading historical data...

Documentation

Showing up to 5 results
|